Weather Roundup
Issued by NWS

Home | Current Version | Previous Version | Graphics & Text | Print | Product List | Glossary Off
Versions: 1 2 3 4 5 6 7 8 9 10 11 12 13 14 15 16 17 18 19 20 21 22 23 24 25 26 27 28 29 30 31 32 33 34 35 36 37 38 39 40 41 42 43 44 45 46 47 48 49 50

426
NZUS93 KARX 200959
HRRWXR

CURRENT HOURLY OBSERVATIONS ACROSS
MUCH OF THE UPPER MISSISSIPPI VALLEY
NATIONAL WEATHER SERVICE LA CROSSE WI
500 AM CDT WED SEP 20 2017


...SOUTHEAST MINNESOTA...


CITY           SKY/WX    TMP DP  RH WIND       PRES   REMARKS
ROCHESTER      CLOUDY    70  64  81 S15G23    29.68R
ROCHESTER/MAYO CLOUDY    71  64  80 SE14G23   29.68R
WINONA         CLOUDY    72  63  73 SE10      29.69S
AUSTIN         CLOUDY    72  64  78 S9        29.68R
ALBERT LEA     CLOUDY    73  66  78 S10       29.66F
DODGE CENTER   CLOUDY    70  63  78 S17G23    29.68R
PRESTON        PTCLDY    68  63  82 S20G25    29.69F
OWATONNA       MOCLDY    72  66  83 S13       29.65R
FARIBAULT      MOCLDY    72  66  83 SE13      29.63F
$$

...ELSEWHERE IN MINNESOTA...


CITY           SKY/WX    TMP DP  RH WIND       PRES   REMARKS
MINNEAPOLIS    MOCLDY    71  68  90 S7        29.61F
INTNL FALLS    CLOUDY    61  59  93 SE16      29.50R
DULUTH         LGT RAIN  59  59 100 SE8       29.66F VSB 1
RED WING       CLOUDY    73  63  68 S12       29.64F
REDWOOD FALLS  PTCLDY    62  59  90 S6        29.60R
MANKATO        MOCLDY    66  63  90 SW6       29.64R
WORTHINGTON    CLOUDY    61  56  83 S5        29.66S
FAIRMONT       PTCLDY    63  61  93 W3        29.65S
$$

...SOUTHWEST WISCONSIN...


CITY           SKY/WX    TMP DP  RH WIND       PRES   REMARKS
LA CROSSE      CLOUDY    71  64  78 S16G22    29.71F
PRAIRIE DU CHI PTCLDY    67  61  83 SE7       29.77F
BOSCOBEL       PTCLDY    68  62  81 MISG      29.80F
LONE ROCK      NOT AVBL
PLATTEVILLE    CLEAR     64  64 100 E14       29.83F
FORT MC COY    CLOUDY    67  62  83 SE10G20   29.77F
MAUSTON-NEW LI CLOUDY   N/A N/A N/A SE7       29.81F HAZE
VIROQUA        PTSUNNY   64  64  99 SE10      29.79F
WIS DELLS      NOT AVBL
$$

...ELSEWHERE IN WISCONSIN...


CITY           SKY/WX    TMP DP  RH WIND       PRES   REMARKS
MILWAUKEE      FOG       60  60 100 E3        29.92S VSB 1/4
MADISON        MOCLDY    62  61  96 SE6       29.87F FOG
GREEN BAY      CLOUDY    52  52 100 E5        29.90F
EAU CLAIRE     NOT AVBL
BLACK RVR FLS  PTSUNNY   66  60  79 SE3       29.76S
MEDFORD        CLOUDY    61  58  91 SE12G18   29.81S
WAUSAU         CLOUDY    60  58  92 SE13      29.82F
WIS RAPIDS     CLOUDY    63  60  90 SE10      29.84F
MARSHFIELD     CLOUDY    61  58  90 SE13G20   29.81S
RICE LAKE      LGT RAIN  67  62  84 S12G17    29.72R
$$

...NORTHEAST IOWA...


CITY           SKY/WX    TMP DP  RH WIND       PRES   REMARKS
WATERLOO       CLEAR     69  64  84 S14G24    29.69F
DUBUQUE        PTCLDY    66  63  90 S17       29.81F
DECORAH        PTCLDY    70  64  83 S14G23    29.72F
MASON CITY     CLOUDY    71  66  84 S16G30    29.68R
CHARLES CITY   PTCLDY    72  68  88 S13G22    29.69S
OELWEIN        CLOUDY    70  66  88 SE16      29.74F
$$

...ELSEWHERE IN IOWA...


CITY           SKY/WX    TMP DP  RH WIND       PRES   REMARKS
DES MOINES     CLOUDY    76  68  76 S15       29.67S
IOWA CITY      CLEAR     69  65  86 SE8       29.79F
FORT DODGE     CLOUDY    74  69  85 S8        29.67R
MARSHALLTOWN   PTCLDY    70  66  87 SE10      29.69F
CEDAR RAPIDS   CLEAR     69  65  86 SE10      29.76F
$$

...NORTHERN ILLINOIS...


CITY           SKY/WX    TMP DP  RH WIND       PRES   REMARKS
CHICAGO-OHARE  PTCLDY    64  62  93 SE5       29.92R FOG
CHICAGO-MIDWAY CLEAR     66  64  93 CALM      29.92R
MOLINE         CLEAR     68  63  84 E6        29.83R
ROCKFORD       PTCLDY    64  62  93 SE7       29.91S FOG
PEORIA         CLEAR     70  65  84 SE3       29.87S
$$

NOTE: "FAIR" INDICATES FEW OR NO CLOUDS BELOW 12,000 FEET WITH NO
SIGNIFICANT WEATHER AND/OR OBSTRUCTIONS TO VISIBILITY. WIND
SPEEDS ARE IN MILES-PER-HOUR.




USA.gov is the U.S. government's official web portal to all federal, state and local government web resources and services.